Location: Fort Wayne
(41.1310°N, 85.1290°W)
Time: 10:49:24
(UTC-05:00)

Tiros 1 despin weight - Visible Passes

Search period start: 25 February 2017 00:00
Search period end: 07 March 2017 00:00
Orbit: 595 x 644 km, 48.2° (Epoch: 24 February)

Date Brightness Start Highest point End Pass type
(mag) Time Alt. Az. Time Alt. Az. Time Alt. Az.
25 Feb ? 20:07:51 10° WNW 20:12:32 81° SSW 20:13:49 48° SE visible
25 Feb ? 21:50:32 10° W 21:50:56 11° W 21:50:56 11° W visible
26 Feb ? 20:25:03 10° WNW 20:29:31 46° SW 20:30:34 39° S visible
27 Feb ? 19:00:26 10° WNW 19:05:05 78° NNE 19:09:47 10° ESE visible
27 Feb ? 20:42:34 10° W 20:46:22 25° SW 20:47:28 23° SSW visible
28 Feb ? 19:17:33 10° WNW 19:22:09 64° SW 19:26:47 10° SE visible
28 Feb ? 21:01:05 10° WSW 21:03:05 13° SW 21:04:29 11° SSW visible
01 Mar ? 19:34:52 10° WNW 19:39:04 35° SW 19:43:19 10° SSE visible
02 Mar ? 19:52:40 10° W 19:55:53 18° SW 19:59:05 10° S visible
05 Mar ? 19:03:06 10° WSW 19:05:20 13° SW 19:07:35 10° SSW visible
